# Tabular Observed and Forecast Hydrograph Information
#
# Location: Sacramento River - Hamilton City (HAMC1)
#
# File Generation Time: 09/03/2026 at 07:00 AM PDT
# Data Interval: 1 Hour
#
# Most Recent Date & Time of Maximum Observed: 08/30/2026 at 02:00 PM PDT
# Maximum Observed Stage: 128.54 Feet
# Maximum Observed Flow: 6729 cfs
#
# Earliest Date & Time of Maximum Forecast: 09/04/2026 at 12:00 PM PDT
# Maximum Forecast Stage: 128.43 Feet
# Maximum Forecast Flow: 6460 cfs
#
# OBSERVED
#
# Date & Time (Local) Stage (Feet) Flow (cfs) Trend Observed Status
# ---------------------------------------------------------------------------------
08/29/2026 07 AM PDT 128.45 6509 Normal
08/29/2026 08 AM PDT 128.45 6509 0 Normal
08/29/2026 09 AM PDT 128.46 6533 + Normal
08/29/2026 10 AM PDT 128.47 6558 + Normal
08/29/2026 11 AM PDT 128.48 6582 + Normal
08/29/2026 12 PM PDT 128.47 6558 - Normal
08/29/2026 01 PM PDT 128.47 6558 0 Normal
08/29/2026 02 PM PDT 128.48 6582 + Normal
08/29/2026 03 PM PDT 128.48 6582 0 Normal
08/29/2026 04 PM PDT 128.48 6582 0 Normal
08/29/2026 05 PM PDT 128.47 6558 - Normal
08/29/2026 06 PM PDT 128.47 6558 0 Normal
08/29/2026 07 PM PDT 128.47 6558 0 Normal
08/29/2026 08 PM PDT 128.46 6533 - Normal
08/29/2026 09 PM PDT 128.47 6558 + Normal
08/29/2026 10 PM PDT 128.47 6558 0 Normal
08/29/2026 11 PM PDT 128.47 6558 0 Normal
08/30/2026 12 AM PDT 128.48 6582 + Normal
08/30/2026 01 AM PDT 128.48 6582 0 Normal
08/30/2026 02 AM PDT 128.48 6582 0 Normal
08/30/2026 03 AM PDT 128.49 6607 + Normal
08/30/2026 04 AM PDT 128.50 6632 + Normal
08/30/2026 05 AM PDT 128.50 6632 0 Normal
08/30/2026 06 AM PDT 128.50 6632 0 Normal
08/30/2026 07 AM PDT 128.51 6656 + Normal
08/30/2026 08 AM PDT 128.52 6680 + Normal
08/30/2026 09 AM PDT 128.53 6705 + Normal
08/30/2026 10 AM PDT 128.53 6705 0 Normal
08/30/2026 11 AM PDT 128.53 6705 0 Normal
08/30/2026 12 PM PDT 128.54 6729 + Normal
08/30/2026 01 PM PDT 128.53 6705 - Normal
08/30/2026 02 PM PDT 128.54 6729 + Normal
08/30/2026 03 PM PDT 128.53 6705 - Normal
08/30/2026 04 PM PDT 128.52 6680 - Normal
08/30/2026 05 PM PDT 128.52 6680 0 Normal
08/30/2026 06 PM PDT 128.51 6656 - Normal
08/30/2026 07 PM PDT 128.50 6632 - Normal
08/30/2026 08 PM PDT 128.49 6607 - Normal
08/30/2026 09 PM PDT 128.48 6582 - Normal
08/30/2026 10 PM PDT 128.46 6533 - Normal
08/30/2026 11 PM PDT 128.45 6509 - Normal
08/31/2026 12 AM PDT 128.44 6485 - Normal
08/31/2026 01 AM PDT 128.43 6460 - Normal
08/31/2026 02 AM PDT 128.42 6436 - Normal
08/31/2026 03 AM PDT 128.41 6412 - Normal
08/31/2026 04 AM PDT 128.40 6388 - Normal
08/31/2026 05 AM PDT 128.39 6363 - Normal
08/31/2026 06 AM PDT 128.38 6338 - Normal
08/31/2026 07 AM PDT 128.38 6338 0 Normal
08/31/2026 08 AM PDT 128.38 6338 0 Normal
08/31/2026 09 AM PDT 128.38 6338 0 Normal
08/31/2026 10 AM PDT 128.38 6338 0 Normal
08/31/2026 11 AM PDT 128.38 6338 0 Normal
08/31/2026 12 PM PDT 128.39 6363 + Normal
08/31/2026 01 PM PDT 128.38 6338 - Normal
08/31/2026 02 PM PDT 128.38 6338 0 Normal
08/31/2026 03 PM PDT 128.39 6363 + Normal
08/31/2026 04 PM PDT 128.38 6338 - Normal
08/31/2026 05 PM PDT 128.37 6314 - Normal
08/31/2026 06 PM PDT 128.39 6363 + Normal
08/31/2026 07 PM PDT 128.39 6363 0 Normal
08/31/2026 08 PM PDT 128.38 6338 - Normal
08/31/2026 09 PM PDT 128.37 6314 - Normal
08/31/2026 10 PM PDT 128.33 6216 - Normal
08/31/2026 11 PM PDT 128.32 6192 - Normal
09/01/2026 12 AM PDT 128.28 6095 - Normal
09/01/2026 01 AM PDT 128.29 6119 + Normal
09/01/2026 02 AM PDT 128.27 6070 - Normal
09/01/2026 03 AM PDT 128.26 6046 - Normal
09/01/2026 04 AM PDT 128.26 6046 0 Normal
09/01/2026 05 AM PDT 128.28 6095 + Normal
09/01/2026 06 AM PDT 128.28 6095 0 Normal
09/01/2026 07 AM PDT 128.30 6144 + Normal
09/01/2026 08 AM PDT 128.30 6144 0 Normal
09/01/2026 09 AM PDT 128.28 6095 - Normal
09/01/2026 10 AM PDT 128.27 6070 - Normal
09/01/2026 11 AM PDT 128.28 6095 + Normal
09/01/2026 12 PM PDT 128.28 6095 0 Normal
09/01/2026 01 PM PDT 128.27 6070 - Normal
09/01/2026 02 PM PDT 128.27 6070 0 Normal
09/01/2026 03 PM PDT 128.26 6046 - Normal
09/01/2026 04 PM PDT 128.27 6070 + Normal
09/01/2026 05 PM PDT 128.28 6095 + Normal
09/01/2026 06 PM PDT 128.28 6095 0 Normal
09/01/2026 07 PM PDT 128.29 6119 + Normal
09/01/2026 08 PM PDT 128.29 6119 0 Normal
09/01/2026 09 PM PDT 128.31 6168 + Normal
09/01/2026 10 PM PDT 128.29 6119 - Normal
09/01/2026 11 PM PDT 128.31 6168 + Normal
09/02/2026 12 AM PDT 128.29 6119 - Normal
09/02/2026 01 AM PDT 128.27 6070 - Normal
09/02/2026 02 AM PDT 128.28 6095 + Normal
09/02/2026 03 AM PDT 128.28 6095 0 Normal
09/02/2026 04 AM PDT 128.30 6144 + Normal
09/02/2026 05 AM PDT 128.31 6168 + Normal
09/02/2026 06 AM PDT 128.30 6144 - Normal
09/02/2026 07 AM PDT 128.30 6144 0 Normal
09/02/2026 08 AM PDT 128.31 6168 + Normal
09/02/2026 09 AM PDT 128.30 6144 - Normal
09/02/2026 10 AM PDT 128.32 6192 + Normal
09/02/2026 11 AM PDT 128.32 6192 0 Normal
09/02/2026 12 PM PDT 128.30 6144 - Normal
09/02/2026 01 PM PDT 128.30 6144 0 Normal
09/02/2026 02 PM PDT 128.32 6192 + Normal
09/02/2026 03 PM PDT 128.31 6168 - Normal
09/02/2026 04 PM PDT 128.32 6192 + Normal
09/02/2026 05 PM PDT 128.31 6168 - Normal
09/02/2026 06 PM PDT 128.31 6168 0 Normal
09/02/2026 07 PM PDT 128.32 6192 + Normal
09/02/2026 08 PM PDT 128.34 6240 + Normal
09/02/2026 09 PM PDT 128.33 6216 - Normal
09/02/2026 10 PM PDT 128.33 6216 0 Normal
09/02/2026 11 PM PDT 128.34 6240 + Normal
09/03/2026 12 AM PDT 128.34 6240 0 Normal
09/03/2026 01 AM PDT 128.35 6265 + Normal
09/03/2026 02 AM PDT 128.35 6265 0 Normal
09/03/2026 03 AM PDT 128.33 6216 - Normal
09/03/2026 04 AM PDT 128.33 6216 0 Normal
09/03/2026 05 AM PDT 128.33 6216 0 Normal
09/03/2026 06 AM PDT 128.33 6216 0 Normal
#
# FORECAST
#
# Date & Time (Local) Stage (Feet) Flow (cfs) Trend Forecast Status
# ---------------------------------------------------------------------------------
09/03/2026 07 AM PDT 128.34 6240 Normal
09/03/2026 08 AM PDT 128.34 6240 0 Normal
09/03/2026 09 AM PDT 128.34 6240 0 Normal
09/03/2026 10 AM PDT 128.34 6240 0 Normal
09/03/2026 11 AM PDT 128.34 6240 0 Normal
09/03/2026 12 PM PDT 128.34 6240 0 Normal
09/03/2026 01 PM PDT 128.35 6265 + Normal
09/03/2026 02 PM PDT 128.35 6265 0 Normal
09/03/2026 03 PM PDT 128.35 6265 0 Normal
09/03/2026 04 PM PDT 128.35 6265 0 Normal
09/03/2026 05 PM PDT 128.35 6265 0 Normal
09/03/2026 06 PM PDT 128.35 6265 0 Normal
09/03/2026 07 PM PDT 128.36 6289 + Normal
09/03/2026 08 PM PDT 128.36 6289 0 Normal
09/03/2026 09 PM PDT 128.36 6289 0 Normal
09/03/2026 10 PM PDT 128.36 6289 0 Normal
09/03/2026 11 PM PDT 128.37 6314 + Normal
09/04/2026 12 AM PDT 128.37 6314 0 Normal
09/04/2026 01 AM PDT 128.38 6338 + Normal
09/04/2026 02 AM PDT 128.38 6338 0 Normal
09/04/2026 03 AM PDT 128.38 6338 0 Normal
09/04/2026 04 AM PDT 128.39 6363 + Normal
09/04/2026 05 AM PDT 128.40 6388 + Normal
09/04/2026 06 AM PDT 128.40 6388 0 Normal
09/04/2026 07 AM PDT 128.41 6412 + Normal
09/04/2026 08 AM PDT 128.41 6412 0 Normal
09/04/2026 09 AM PDT 128.42 6436 + Normal
09/04/2026 10 AM PDT 128.42 6436 0 Normal
09/04/2026 11 AM PDT 128.42 6436 0 Normal
09/04/2026 12 PM PDT 128.43 6460 + Normal
09/04/2026 01 PM PDT 128.43 6460 0 Normal
09/04/2026 02 PM PDT 128.43 6460 0 Normal
09/04/2026 03 PM PDT 128.43 6460 0 Normal
09/04/2026 04 PM PDT 128.43 6460 0 Normal
09/04/2026 05 PM PDT 128.43 6460 0 Normal
09/04/2026 06 PM PDT 128.42 6436 - Normal
09/04/2026 07 PM PDT 128.42 6436 0 Normal
09/04/2026 08 PM PDT 128.41 6412 - Normal
09/04/2026 09 PM PDT 128.41 6412 0 Normal
09/04/2026 10 PM PDT 128.41 6412 0 Normal
09/04/2026 11 PM PDT 128.40 6388 - Normal
09/05/2026 12 AM PDT 128.40 6388 0 Normal
09/05/2026 01 AM PDT 128.40 6388 0 Normal
09/05/2026 02 AM PDT 128.39 6363 - Normal
09/05/2026 03 AM PDT 128.39 6363 0 Normal
09/05/2026 04 AM PDT 128.38 6338 - Normal
09/05/2026 05 AM PDT 128.38 6338 0 Normal
09/05/2026 06 AM PDT 128.38 6338 0 Normal
09/05/2026 07 AM PDT 128.38 6338 0 Normal
09/05/2026 08 AM PDT 128.38 6338 0 Normal
09/05/2026 09 AM PDT 128.37 6314 - Normal
09/05/2026 10 AM PDT 128.37 6314 0 Normal
09/05/2026 11 AM PDT 128.37 6314 0 Normal
09/05/2026 12 PM PDT 128.37 6314 0 Normal
09/05/2026 01 PM PDT 128.37 6314 0 Normal
09/05/2026 02 PM PDT 128.37 6314 0 Normal
09/05/2026 03 PM PDT 128.37 6314 0 Normal
09/05/2026 04 PM PDT 128.37 6314 0 Normal
09/05/2026 05 PM PDT 128.37 6314 0 Normal
09/05/2026 06 PM PDT 128.36 6289 - Normal
09/05/2026 07 PM PDT 128.36 6289 0 Normal
09/05/2026 08 PM PDT 128.35 6265 - Normal
09/05/2026 09 PM PDT 128.34 6240 - Normal
09/05/2026 10 PM PDT 128.32 6192 - Normal
09/05/2026 11 PM PDT 128.30 6144 - Normal
09/06/2026 12 AM PDT 128.28 6095 - Normal
09/06/2026 01 AM PDT 128.26 6046 - Normal
09/06/2026 02 AM PDT 128.25 6022 - Normal
09/06/2026 03 AM PDT 128.23 5974 - Normal
09/06/2026 04 AM PDT 128.22 5950 - Normal
09/06/2026 05 AM PDT 128.21 5926 - Normal
09/06/2026 06 AM PDT 128.21 5926 0 Normal
09/06/2026 07 AM PDT 128.20 5902 - Normal
09/06/2026 08 AM PDT 128.20 5902 0 Normal
09/06/2026 09 AM PDT 128.19 5877 - Normal
09/06/2026 10 AM PDT 128.19 5877 0 Normal
09/06/2026 11 AM PDT 128.19 5877 0 Normal
09/06/2026 12 PM PDT 128.19 5877 0 Normal
09/06/2026 01 PM PDT 128.19 5877 0 Normal
09/06/2026 02 PM PDT 128.19 5877 0 Normal
09/06/2026 03 PM PDT 128.19 5877 0 Normal
09/06/2026 04 PM PDT 128.19 5877 0 Normal
09/06/2026 05 PM PDT 128.19 5877 0 Normal
09/06/2026 06 PM PDT 128.19 5877 0 Normal
09/06/2026 07 PM PDT 128.18 5853 - Normal
09/06/2026 08 PM PDT 128.18 5853 0 Normal
09/06/2026 09 PM PDT 128.18 5853 0 Normal
09/06/2026 10 PM PDT 128.19 5877 + Normal
09/06/2026 11 PM PDT 128.19 5877 0 Normal
09/07/2026 12 AM PDT 128.19 5877 0 Normal
09/07/2026 01 AM PDT 128.19 5877 0 Normal
09/07/2026 02 AM PDT 128.19 5877 0 Normal
09/07/2026 03 AM PDT 128.19 5877 0 Normal
09/07/2026 04 AM PDT 128.19 5877 0 Normal
09/07/2026 05 AM PDT 128.19 5877 0 Normal
09/07/2026 06 AM PDT 128.19 5877 0 Normal
09/07/2026 07 AM PDT 128.19 5877 0 Normal
09/07/2026 08 AM PDT 128.19 5877 0 Normal
09/07/2026 09 AM PDT 128.19 5877 0 Normal
09/07/2026 10 AM PDT 128.19 5877 0 Normal
09/07/2026 11 AM PDT 128.19 5877 0 Normal
09/07/2026 12 PM PDT 128.19 5877 0 Normal
09/07/2026 01 PM PDT 128.19 5877 0 Normal
09/07/2026 02 PM PDT 128.19 5877 0 Normal
09/07/2026 03 PM PDT 128.19 5877 0 Normal
09/07/2026 04 PM PDT 128.19 5877 0 Normal
09/07/2026 05 PM PDT 128.19 5877 0 Normal
09/07/2026 06 PM PDT 128.19 5877 0 Normal
09/07/2026 07 PM PDT 128.19 5877 0 Normal
09/07/2026 08 PM PDT 128.19 5877 0 Normal
09/07/2026 09 PM PDT 128.19 5877 0 Normal
09/07/2026 10 PM PDT 128.19 5877 0 Normal
09/07/2026 11 PM PDT 128.19 5877 0 Normal
09/08/2026 12 AM PDT 128.19 5877 0 Normal
09/08/2026 01 AM PDT 128.19 5877 0 Normal
09/08/2026 02 AM PDT 128.19 5877 0 Normal
09/08/2026 03 AM PDT 128.19 5877 0 Normal
09/08/2026 04 AM PDT 128.19 5877 0 Normal
09/08/2026 05 AM PDT 128.19 5877 0 Normal
#
# NOTE 1: Stages are rounded to the nearest hundredth (.01) of a foot.
# NOTE 2: Flows are rounded to the nearest (1) cfs.
# NOTE 3: Trends are determined using hourly change in unrounded stage and flow.
# NOTE 4: Maximum Values are determined using unrounded stage and flow.
|